SCP
0 1 1 1 1 0 0 1 1 1 1 1 1 0 0 0 0 0 0 0 0 0 0 0 0 0 0 0 0 0 0 0 0 0 0 0 0 0 0 0 0 0 0
1 1 1 1 1 1 1 1 1 1 1 1 1 1 1 0 0 0 0 0 0 0 0 0 0 0 0 0 0 0 0 0 0 0 0 0 0 0 0 0 0 0 0
1 1 1 1 1 1 1 1 1 1 1 1 1 1 1 1 1 1 0 0 0 0 0 0 0 0 0 0 0 0 0 0 0 0 0 0 0 0 0 0 0 0 0
1 1 1 1 1 1 1 1 1 1 1 1 1 1 1 1 1 1 0 0 0 0 0 0 0 0 0 0 0 0 0 0 0 0 0 0 0 0 0 0 0 0 0
1 1 1 1 1 1 1 1 1 1 1 1 1 1 1 1 1 1 0 0 0 0 0 0 0 1 0 0 0 0 0 0 0 0 0 0 0 0 0 0 0 0 0
1 1 1 1 1 1 1 1 1 1 1 1 1 1 1 1 1 1 0 0 0 0 0 0 1 1 1 1 1 1 0 0 0 0 0 0 0 0 0 0 0 0 0
1 1 1 1 1 1 1 1 1 1 1 1 1 1 1 1 1 1 0 0 0 0 0 0 1 1 1 1 1 1 0 0 0 0 0 0 0 0 0 0 0 0 0
1 1 1 1 1 1 1 1 1 1 1 1 1 1 1 1 1 1 0 0 0 0 0 0 1 1 1 1 1 0 0 0 0 0 0 0 0 0 0 0 0 0 0
1 2 2 2 1 1 1 1 1 1 1 1 1 1 1 1 1 1 0 0 0 0 0 0 1 1 1 0 0 0 0 0 0 0 0 0 0 0 0 0 0 0 0
2 2 2 2 1 1 1 1 1 1 1 1 1 1 1 1 1 0 0 0 0 0 0 1 1 1 0 0 0 0 0 0 0 0 0 0 0 0 0 0 0 0 0
2 2 2 2 2 1 1 1 0 0 1 1 1 1 1 1 1 0 0 0 0 0 0 1 1 1 0 0 0 0 0 0 0 0 0 0 0 0 0 0 0 0 1
2 2 2 2 2 2 1 1 1 1 1 1 1 1 1 1 1 0 0 0 0 0 0 1 1 0 0 0 0 0 0 0 0 0 0 0 0 0 0 0 0 1 1
2 2 2 2 2 2 2 2 1 1 1 1 1 1 1 1 1 0 0 0 0 0 0 0 0 0 1 1 0 0 0 0 0 0 0 0 0 0 0 1 1 1 1
2 2 2 2 2 3 3 2 2 2 1 1 1 0 0 0 0 0 0 0 0 0 0 0 0 1 1 1 1 0 0 0 0 0 0 0 0 0 0 1 1 1 1
1 1 2 2 3 3 3 3 3 2 2 1 1 0 0 0 0 0 0 0 0 0 0 0 0 1 1 1 1 1 0 0 0 0 0 0 0 0 0 1 1 1 1
1 1 2 3 3 3 3 3 3 3 2 1 1 0 0 0 0 0 0 0 0 0 0 0 0 0 1 1 1 1 0 0 0 0 0 0 0 0 0 0 1 1 1
1 1 2 3 3 3 3 3 3 3 2 1 1 0 0 0 0 0 0 0 0 0 0 0 0 0 0 1 1 1 0 0 0 0 0 0 0 0 0 0 0 1 1
1 1 1 2 3 3 3 3 3 2 2 1 1 0 0 0 0 0 0 0 0 0 0 0 0 0 0 0 0 0 0 0 0 0 0 1 0 0 0 0 0 0 1
0 0 1 1 2 3 3 3 2 2 1 1 0 0 0 0 0 0 0 0 0 0 0 0 0 0 0 0 0 0 0 0 0 0 1 1 1 0 0 0 0 0 0
0 0 0 1 2 2 2 2 2 2 1 1 0 0 0 0 0 0 0 0 0 0 0 0 0 0 0 0 0 0 0 0 0 0 1 1 1 1 0 0 0 0 0
0 0 0 1 1 2 2 2 2 1 1 0 0 0 0 0 0 0 0 0 0 0 0 0 0 0 0 0 0 0 0 0 0 0 1 1 1 1 1 0 0 0 0
0 0 0 0 1 1 1 2 1 1 0 0 0 0 0 0 0 0 0 0 0 0 0 0 0 0 0 0 0 0 0 0 0 0 0 0 1 1 1 1 1 0 0
0 0 0 0 1 1 1 1 1 0 0 0 0 0 0 0 0 0 0 0 0 0 0 0 0 0 0 0 0 0 0 0 0 0 0 0 0 0 1 1 0 0 0
0 0 0 0 1 1 1 1 1 0 0 0 0 0 0 0 0 0 0 0 0 0 0 0 0 0 0 0 0 0 0 0 0 0 0 0 0 0 0 0 1 1 0
0 0 0 0 1 1 1 1 1 0 0 0 0 0 0 0 0 0 0 0 0 0 0 0 0 0 0 0 0 0 0 0 0 0 0 0 0 0 0 0 0 0 0
0 0 0 0 1 1 1 1 1 0 0 0 0 0 0 0 0 0 0 0 0 0 0 0 0 0 0 0 0 0 0 0 0 0 0 0 0 0 0 0 0 0 0
Wind_Speed
1 1 1 1 2 4 6 7 7 8 8 8 8 9 9 9 9 9 9 9 9 9 10 10 10 10 10 10 10 10 10 11 11 10 10 10 10 10 10 10 8 8 11
2 2 1 1 3 4 5 6 7 7 8 8 8 8 8 8 8 9 9 9 9 10 10 10 10 10 10 10 10 10 10 10 10 9 8 8 9 10 10 10 9 8 10
2 3 2 1 3 4 5 6 6 7 7 8 8 8 8 8 8 8 9 9 9 9 9 9 9 9 10 10 10 10 10 10 9 7 5 6 8 9 9 9 9 9 9
2 3 3 3 4 4 5 6 6 7 7 8 8 8 8 8 8 8 8 8 8 9 9 9 8 9 9 9 9 9 9 9 8 4 4 6 6 8 8 8 8 8 8
3 3 3 3 4 5 5 5 6 6 7 7 8 8 7 8 7 7 7 7 7 8 8 8 8 8 8 9 9 9 9 8 5 3 5 5 5 7 7 7 8 8 7
3 3 3 3 4 5 5 5 5 6 6 7 7 7 7 7 7 7 6 7 7 7 7 7 7 8 8 8 8 8 8 6 3 4 5 4 4 6 6 6 7 7 6
3 3 3 3 4 4 4 4 5 5 5 6 6 6 6 7 6 6 6 6 6 6 6 6 6 7 7 7 7 7 7 5 4 4 4 4 5 6 6 6 6 5 5
3 2 3 3 3 4 4 4 4 4 5 5 5 5 6 6 6 6 6 6 6 6 6 6 6 7 7 7 7 7 6 4 3 4 4 4 5 5 5 5 5 5 5
2 2 2 2 2 3 4 4 4 4 5 4 5 5 5 5 5 5 5 5 5 5 6 5 6 6 6 6 6 6 5 4 2 3 3 3 4 4 4 4 4 4 4
2 2 2 2 1 2 2 4 5 5 5 5 5 5 5 4 5 5 4 4 5 5 5 5 5 6 6 5 6 5 4 2 2 2 2 3 4 3 3 3 4 4 4
2 1 1 2 1 1 2 2 3 3 4 4 4 5 3 2 2 2 3 4 4 4 5 5 5 5 5 5 5 4 1 1 2 2 2 4 3 3 3 3 2 3 3
2 2 1 2 2 2 1 1 1 1 2 1 2 2 1 1 1 1 3 4 4 4 4 5 5 4 2 2 3 1 1 1 1 1 2 4 3 2 2 2 2 2 2
3 2 2 2 2 2 1 1 1 0 1 1 2 2 1 1 1 1 1 1 2 2 2 3 3 2 1 1 0 0 1 1 1 1 2 4 4 2 2 2 2 1 1
3 3 2 2 2 2 1 1 1 1 1 0 1 2 1 1 0 0 0 0 0 0 1 1 0 1 1 1 0 0 0 0 0 1 1 4 4 2 2 2 2 2 2
4 4 3 3 3 2 2 1 1 1 1 1 1 1 1 1 0 0 0 0 0 0 0 0 0 0 0 0 0 1 1 1 1 1 0 2 3 3 3 3 3 3 3
4 4 3 3 3 3 2 2 1 1 1 1 1 1 1 1 0 0 0 0 0 0 1 1 1 1 1 1 1 1 1 1 1 1 1 1 2 4 4 4 3 3 3
4 4 3 3 3 3 2 2 1 1 1 1 1 1 1 1 1 0 0 0 0 1 1 0 1 1 1 1 1 1 1 1 2 2 2 2 1 2 4 4 4 4 4
3 3 3 2 3 3 2 2 1 1 1 1 0 1 1 1 1 1 0 0 1 0 0 1 1 1 1 1 1 1 1 1 2 2 2 2 2 2 2 4 5 5 5
3 3 3 3 3 3 2 2 2 1 1 1 1 1 1 1 1 1 1 0 0 0 0 0 1 1 1 2 2 2 2 2 2 2 3 3 3 3 2 2 4 5 5
2 2 3 3 3 3 3 2 2 1 1 1 1 0 1 1 1 1 1 0 0 0 0 0 1 1 1 2 2 2 2 2 2 3 3 3 2 3 3 3 2 2 4
2 2 2 2 2 2 2 2 2 1 1 1 1 1 0 1 1 1 1 1 0 1 1 1 1 1 1 1 2 2 2 3 3 3 3 3 2 3 3 3 2 2 2
2 2 2 3 2 2 2 1 1 1 1 0 0 0 0 0 1 1 1 1 1 1 1 1 0 1 1 1 1 2 2 2 2 2 2 2 3 3 2 3 3 3 3
2 3 2 2 2 2 2 2 2 1 1 1 0 0 0 0 1 1 1 1 1 1 1 1 1 1 1 1 1 2 2 2 2 2 2 2 3 3 3 3 4 4 3
2 2 2 2 2 2 3 3 3 2 1 1 1 1 1 0 1 1 1 1 2 2 2 2 2 2 2 2 1 2 2 2 2 3 2 2 3 4 4 3 4 4 4
2 2 2 2 2 2 2 3 3 2 1 1 1 1 1 1 1 1 1 2 2 2 2 2 2 2 2 2 2 1 2 2 3 3 4 3 3 3 4 4 4 4 4
2 2 2 3 2 2 2 2 3 3 3 2 2 2 1 1 1 1 1 2 2 2 2 2 3 3 3 3 2 2 2 2 2 3 4 4 4 4 4 4 4 4 3
Wind_Direction
167 154 314 38 87 108 109 107 104 104 103 104 102 100 98 95 91 87 82 78 75 73 73 76 74 70 68 68 69 72 70 69 68 65 68 74 72 70 67 62 60 69 64
158 157 46 44 90 101 106 105 104 102 104 104 103 102 99 96 90 86 83 79 77 75 73 73 72 69 68 67 67 71 73 71 66 60 63 79 75 72 67 61 52 61 65
127 139 140 41 76 93 98 101 104 104 104 105 103 103 101 98 92 88 85 81 79 76 73 72 73 72 71 69 69 70 73 74 66 55 56 79 79 73 68 65 62 62 62
128 134 139 67 77 90 97 97 95 101 105 104 102 102 103 99 94 91 88 83 79 77 74 72 76 77 74 72 72 70 70 71 62 46 69 70 76 74 69 65 63 61 60
132 130 113 63 82 89 91 95 96 94 101 103 102 101 102 102 97 92 90 86 81 79 78 75 77 79 74 73 73 71 69 64 52 58 73 72 71 71 68 65 62 59 56
137 130 110 64 83 86 86 89 91 95 96 97 101 102 100 99 100 94 93 88 83 81 79 78 80 81 76 74 72 71 68 56 49 68 70 69 68 67 65 66 62 59 55
140 130 125 76 83 86 85 90 86 89 94 92 95 99 100 98 100 98 93 89 85 83 83 81 82 85 82 76 73 71 63 34 50 65 63 65 60 60 65 64 64 61 55
133 125 120 75 69 78 79 83 85 84 90 93 90 90 90 91 93 98 95 90 86 86 87 85 85 87 84 78 74 70 56 25 58 64 62 66 53 54 62 64 60 61 60
121 122 122 128 107 80 74 68 71 74 78 81 83 77 71 74 81 80 86 87 85 91 90 86 85 85 83 79 73 65 53 19 44 53 49 53 37 44 57 60 60 59 63
124 131 136 140 135 138 129 76 64 65 67 66 68 64 63 72 79 73 74 76 81 90 92 87 85 86 82 80 72 61 43 358 55 50 50 44 24 36 47 55 54 54 54
139 145 158 160 151 137 136 105 94 77 71 73 78 64 72 122 113 99 71 61 76 89 97 93 89 84 81 83 71 51 7 37 48 31 42 22 17 34 37 42 45 56 52
188 184 180 186 177 160 134 142 151 133 119 113 102 97 102 115 97 71 78 61 63 76 97 100 94 96 87 100 92 51 34 32 28 31 36 12 10 22 27 23 21 37 46
204 197 202 203 189 176 162 160 144 139 122 130 104 85 73 108 121 113 109 107 96 94 105 105 114 107 89 74 74 45 36 10 11 20 34 8 357 358 5 1 350 347 352
208 207 206 209 196 182 175 170 162 147 117 94 99 99 104 86 75 112 100 65 88 67 75 88 74 92 107 128 139 131 160 311 320 346 27 2 349 341 328 318 319 316 317
214 211 205 204 201 182 177 168 168 158 136 128 106 103 84 109 102 69 101 84 69 41 58 25 64 142 192 192 192 216 237 262 278 291 345 6 340 331 313 298 294 298 293
227 218 208 200 201 183 177 172 171 154 128 141 124 107 120 105 92 66 89 168 35 346 330 293 264 260 255 248 229 247 250 256 257 269 278 303 332 327 315 302 290 277 281
228 217 204 197 189 182 178 174 160 150 145 143 138 136 119 116 138 110 12 37 346 329 300 263 258 247 247 248 250 264 268 271 267 278 280 276 275 319 320 306 295 287 276
226 212 199 184 181 177 171 170 162 161 148 136 127 127 126 127 114 115 111 343 356 348 301 267 248 247 242 246 253 267 274 274 274 276 276 279 278 275 297 313 302 302 288
225 207 192 183 181 176 166 161 151 148 138 136 129 117 110 117 124 146 139 341 323 16 292 293 280 261 254 256 260 269 271 273 278 277 274 280 282 281 281 304 309 309 301
219 204 189 179 176 171 166 159 152 141 133 140 146 91 121 126 130 157 145 160 218 190 244 271 286 299 286 281 268 273 273 272 272 273 272 275 283 285 280 281 286 293 296
196 188 187 176 174 171 170 172 175 173 143 138 111 87 150 146 150 161 149 164 211 214 253 277 288 291 316 306 275 274 267 253 257 270 270 270 278 280 269 267 274 279 274
190 189 188 185 178 177 176 167 177 170 153 143 83 96 44 152 171 186 170 176 207 216 208 252 298 284 304 306 287 273 273 247 235 267 273 274 276 278 258 259 262 266 276
187 192 187 184 178 174 164 145 141 143 161 172 116 22 353 310 203 205 196 192 207 213 217 226 231 259 250 266 288 286 273 271 306 249 260 275 287 285 268 258 257 256 259
196 185 180 175 173 169 166 167 172 180 187 222 252 268 277 266 257 226 218 211 207 216 224 225 234 246 235 230 263 293 297 310 279 286 263 265 281 279 273 268 258 254 253
188 176 172 163 162 163 170 178 182 188 193 204 217 238 253 235 252 243 231 227 223 225 225 225 229 233 234 235 239 265 278 271 268 270 279 284 281 271 269 266 268 259 251
177 168 166 161 162 165 173 181 190 193 198 201 214 231 253 253 250 250 235 235 232 233 232 234 231 230 238 241 245 247 255 257 262 270 274 282 286 282 273 262 260 261 255